Macon, GA

2:36 AM EDT on May 30, 2017 (GMT -0400)
Middle Georgia Regional

Weather History for KMCN - January, 2014

Change the Weather History Date:

Sunday, January 19, 2014

  Actual Average Record
Temperature  
Mean Temperature 46 °F 46 °F  
Max Temperature 59 °F 58 °F 79 °F (1990)
Min Temperature 32 °F 35 °F 5 °F (1977)
Degree Days  
Heating Degree Days 19 19  
Month to date heating degree days 446 361  
Since 1 July heating degree days 1352 1286  
Cooling Degree Days 0 0  
Month to date cooling degree days 0 0  
Year to date cooling degree days 0 0  
Moisture  
Dew Point 27 °F    
Average Humidity 51    
Maximum Humidity 76    
Minimum Humidity 26    
Precipitation  
Precipitation 0.00 in 0.14 in 1.65 in (1978)
Month to date precipitation 2.68 2.51  
Year to date precipitation 2.68 2.51  
Snow  
Snow 0.00 in 0.00 in 0.00 in (2002)
Month to date snowfall 0.0 0.3  
Since 1 July snowfall 0.0 0.4  
Snow Depth 0.00 in    
Sea Level Pressure  
Sea Level Pressure 30.07 in    
Wind  
Wind Speed 7 mph (West)    
Max Wind Speed 18 mph    
Max Gust Speed 24 mph    
Visibility 10 miles    
Events      
T = Trace of Precipitation, MM = Missing Value Source: NWS Daily Summary

Daily Weather History Graph

Daily Weather History Graph

Search for Another Location

Airport or City:

Trip Planner

Search our weather history database for the weather conditions in past years. The results will help you decide how hot, cold, wet, or windy it might be!

Date:

Astronomy

Jan. 19, 2014 Rise Set
Actual Time 7:35 AM EST 5:55 PM EST
Civil Twilight 7:09 AM EST 6:21 PM EST
Nautical Twilight 6:39 AM EST 6:51 PM EST
Astronomical Twilight 6:09 AM EST 7:21 PM EST
Moon 9:18 PM EST (1/19) 9:18 AM EST (1/19)
Length of Visible Light 11h 12m
Length of Day
10h 19m
Waning Gibbous, 89% of the Moon is Illuminated
Jan 19
Waning Gibbous
Jan 24
Last Quarter
Jan 30
New
Feb 6
First Quarter
Feb 14
Full

Hourly Weather History & Observations

Time (EST) Temp. Windchill Dew Point Humidity Pressure Visibility Wind Dir Wind Speed Gust Speed Precip Events Conditions
12:53 AM 39.0 °F 35.7 °F 17.1 °F 41% 30.06 in 10.0 mi WSW 4.6 mph - N/A   Clear
1:53 AM 37.9 °F 33.5 °F 18.0 °F 45% 30.06 in 10.0 mi SW 5.8 mph - N/A   Clear
2:53 AM 37.9 °F 34.4 °F 19.9 °F 48% 30.05 in 10.0 mi SW 4.6 mph - N/A   Overcast
3:53 AM 37.9 °F 34.4 °F 23.0 °F 55% 30.04 in 10.0 mi SW 4.6 mph - N/A   Overcast
4:53 AM 39.0 °F 33.4 °F 27.0 °F 62% 30.04 in 10.0 mi WSW 8.1 mph - N/A   Clear
5:53 AM 39.9 °F 35.8 °F 28.9 °F 65% 30.04 in 10.0 mi SW 5.8 mph - N/A   Mostly Cloudy
6:53 AM 39.9 °F 34.5 °F 30.0 °F 68% 30.04 in 10.0 mi SW 8.1 mph - N/A   Overcast
7:53 AM 39.0 °F 36.8 °F 30.0 °F 70% 30.05 in 10.0 mi SW 3.5 mph - N/A   Clear
8:53 AM 42.1 °F 40.2 °F 32.0 °F 67% 30.07 in 10.0 mi SW 3.5 mph - N/A   Clear
9:53 AM 48.9 °F - 34.0 °F 56% 30.09 in 10.0 mi West 10.4 mph - N/A   Clear
10:53 AM 53.1 °F - 30.9 °F 43% 30.10 in 10.0 mi NW 10.4 mph - N/A   Clear
11:53 AM 55.9 °F - 28.9 °F 36% 30.10 in 10.0 mi WNW 12.7 mph 17.3 mph N/A   Clear
12:53 PM 57.0 °F - 28.0 °F 33% 30.06 in 10.0 mi West 13.8 mph 21.9 mph N/A   Clear
1:53 PM 57.9 °F - 25.0 °F 28% 30.04 in 10.0 mi WNW 17.3 mph 24.2 mph N/A   Clear
2:53 PM 59.0 °F - 24.1 °F 26% 30.05 in 10.0 mi NW 11.5 mph 21.9 mph N/A   Clear
3:53 PM 59.0 °F - 25.0 °F 27% 30.06 in 10.0 mi WNW 12.7 mph - N/A   Clear
4:53 PM 57.0 °F - 25.0 °F 29% 30.06 in 10.0 mi West 9.2 mph - N/A   Clear
5:53 PM 52.0 °F - 25.0 °F 35% 30.07 in 10.0 mi WNW 5.8 mph - N/A   Clear
6:53 PM 50.0 °F - 27.0 °F 41% 30.08 in 10.0 mi West 4.6 mph - N/A   Clear
7:53 PM 45.0 °F 42.6 °F 27.0 °F 49% 30.10 in 10.0 mi West 4.6 mph - N/A   Clear
8:53 PM 37.9 °F 34.4 °F 28.0 °F 68% 30.09 in 10.0 mi West 4.6 mph - N/A   Clear
9:53 PM 37.0 °F - 28.9 °F 73% 30.09 in 10.0 mi Calm Calm - N/A   Clear
10:53 PM 37.9 °F 35.5 °F 30.0 °F 73% 30.11 in 10.0 mi West 3.5 mph - N/A   Clear
11:53 PM 32.0 °F - 30.0 °F 92% 30.10 in 10.0 mi Calm Calm - N/A   Clear